Location: *
(49.5667°N, 1.3667°W)
Time: 07:01:06
(UTC+00:00)

Cosmos 405 Rocket - Pass Details

Date: 20 September 2019
Orbit: 491 x 554 km, 81.3° (Epoch: 19 October)

Event Time Altitude Azimuth Distance (km) Brightness Sun altitude
Rises 20:32:59 0° 215° (SW) 2,560 6.3 -23.0°
Reaches altitude 10° 20:35:15 10° 226° (SW) 1,685 5.4 -23.3°
Maximum altitude 20:38:33 31° 289° (WNW) 896 4.5 -23.8°
Drops below altitude 10° 20:41:55 10° 353° (N) 1,711 5.8 -24.3°
Sets 20:44:14 0° 4° (N) 2,609 6.7 -24.6°
